Weather Roundup
Issued by NWS Springfield, MO

Home | Current Version | Previous Version | Text Only | Print | Product List | Glossary Off
Versions: 1 2 3 4 5 6 7 8 9 10 11 12 13 14 15 16 17 18 19 20 21 22 23 24 25 26 27 28 29 30 31 32 33 34 35 36 37 38 39 40 41 42 43 44 45 46 47 48 49 50

000
NZUS99 KSGF 030507
HRRSGF

HOURLY WEATHER
NATIONAL WEATHER SERVICE SPRINGFIELD MO
1200 AM CDT MON AUG 03 2015

......SGF CWA......

CITY           SKY/WX    TMP DP  RH WIND       PRES   REMARKS
SPRINGFIELD    PTCLDY    73  63  70 S7        29.94F
JOPLIN         PTCLDY    73  66  78 S5        29.94S
WEST PLAINS    CLEAR     75  68  78 SW3       29.97S
ROLLA          MOCLDY    73  68  84 SW7       29.92R
OSAGE BEACH    PTCLDY    72  66  83 CALM      29.95R
BRANSON        CLEAR     73  66  78 CALM      29.97F

......SURROUNDING SGF CWA......

CITY           SKY/WX    TMP DP  RH WIND       PRES   REMARKS
CHANUTE        CLEAR     71  65  81 S6        29.92S
PARSONS        CLEAR     69  67  93 MISG      29.93S
COFFEYVILLE    CLEAR     72  66  81 S3        29.92S
EMPORIA        MOCLDY    74  69  85 S10       29.90F
GROVE OK       MOCLDY    73  73 100 CALM      29.94S
ROGERS AR      CLEAR     75  68  78 CALM      29.98S
SILOAM SPRINGS PTCLDY    73  64  73 E3        29.96R
HARRISON AR    CLEAR     71  65  81 CALM      29.97F
NEAR YELLVILLE CLEAR     75  66  73 CALM      29.93S

......KANSAS AND MISSOURI......

CITY           SKY/WX    TMP DP  RH WIND       PRES   REMARKS
KANSAS CTY INT PTCLDY    80  71  74 E7        29.91R
DOWNTOWN KC    PTCLDY    83  71  67 E9        29.89R
COLUMBIA       CLOUDY    74  64  71 S5        29.91F
SEDALIA        PTCLDY    77  68  73 VRB3      29.93S
ST JOSEPH      PTCLDY    79  64  60 E10       29.88R
ST LOUIS       CLOUDY    84  67  56 SW7       29.85F
SPIRIT OF STL  CLOUDY    76  72  87 W6        29.84F
KIRKSVILLE     CLOUDY    75  61  61 W9        29.84F
WICHITA        PTCLDY    75  68  78 S8        29.91S
TOPEKA         CLEAR     81  70  69 SW6       29.87S
OLATHE         CLEAR     79  65  62 SW8       29.89R

......TENNESSEE......

CITY           SKY/WX    TMP DP  RH WIND       PRES   REMARKS
MEMPHIS        PTCLDY    80  68  66 S3        29.92R
NASHVILLE      CLEAR     72  64  76 CALM      29.93S

......ARKANSAS.......

CITY           SKY/WX    TMP DP  RH WIND       PRES   REMARKS
FAYETTEVILLE   CLEAR     69  68  96 S3        29.97S
FT SMITH       CLEAR     79  70  74 E3        29.91R
LITTLE ROCK    PTCLDY    80  68  66 CALM      29.92R

......OKLAHOMA.......

CITY           SKY/WX    TMP DP  RH WIND       PRES   REMARKS
TULSA          PTCLDY    76  70  82 E5        29.91R
PONCA CITY     PTCLDY    76  66  71 SE6       29.91S
MCALESTER      MOCLDY    72  65  78 CALM      29.93R
OKLAHOMA CITY  CLOUDY    74  67  78 SE7       29.92R

......IOWA............

CITY           SKY/WX    TMP DP  RH WIND       PRES   REMARKS
DES MOINES     PTCLDY    74  63  68 N8        29.85R
QUAD CITIES    CLEAR     76  62  62 W12       29.77R

......ILLINOIS........

CITY           SKY/WX    TMP DP  RH WIND       PRES   REMARKS
QUINCY         CLOUDY    79  54  41 W6        29.79F
CHICAGO        CLOUDY    69  66  90 S7        29.73R THUNDER



USA.gov is the U.S. government's official web portal to all federal, state and local government web resources and services.